SKG790 CYOO-CYOW

Flight info

Callsign SKG790
Flight time 0h 26m
Altitude 35000
Route DCT
Aircraft LJ35/M-SGCDK/S

Departure

Time 2026-05-06 15:23
Airport Oshawa Executive Airport (CYOO)

Arrival

Time 2026-05-06 15:49
Airport Ottawa Macdonald-Cartier International Airport (CYOW)
Time Latitude Longitude Altitude Speed Heading
2026-05-06 15:14 43.92568 -78.90254 461 ft 0 kts 72°
2026-05-06 15:21 43.92569 -78.90249 461 ft 4 kts 85°
2026-05-06 15:21 43.92554 -78.90214 461 ft 8 kts 142°
2026-05-06 15:21 43.92511 -78.90205 460 ft 9 kts 194°
2026-05-06 15:21 43.92501 -78.90267 461 ft 9 kts 295°
2026-05-06 15:22 43.92490 -78.90345 461 ft 9 kts 219°
2026-05-06 15:22 43.92437 -78.90358 460 ft 5 kts 115°
2026-05-06 15:22 43.92357 -78.90069 459 ft 82 kts 110°
2026-05-06 15:22 43.92028 -78.88883 562 ft 169 kts 111°
2026-05-06 15:23 43.91543 -78.87116 1114 ft 226 kts 110°
2026-05-06 15:23 43.91051 -78.84894 2407 ft 252 kts 98°
2026-05-06 15:23 43.91344 -78.82458 4063 ft 264 kts 63°
2026-05-06 15:23 43.92571 -78.80560 5791 ft 268 kts 34°
2026-05-06 15:24 43.94068 -78.79319 7389 ft 225 kts 26°
2026-05-06 15:24 43.95555 -78.78183 8263 ft 252 kts 25°
2026-05-06 15:24 43.97098 -78.76984 9700 ft 261 kts 25°
2026-05-06 15:24 43.98645 -78.75483 10897 ft 277 kts 37°
2026-05-06 15:25 43.99931 -78.73412 12153 ft 290 kts 55°
2026-05-06 15:25 44.00959 -78.70980 13375 ft 301 kts 60°
2026-05-06 15:25 44.01980 -78.68378 14513 ft 309 kts 59°
2026-05-06 15:25 44.03112 -78.65807 15695 ft 313 kts 55°
2026-05-06 15:26 44.04332 -78.63247 16853 ft 319 kts 55°
2026-05-06 15:26 44.05533 -78.60646 17986 ft 326 kts 57°
2026-05-06 15:26 44.06744 -78.57932 18977 ft 332 kts 56°
2026-05-06 15:26 44.07986 -78.55169 19925 ft 339 kts 55°
2026-05-06 15:27 44.09244 -78.52405 20862 ft 346 kts 54°
2026-05-06 15:27 44.10548 -78.49535 21794 ft 352 kts 54°
2026-05-06 15:27 44.11867 -78.46609 22725 ft 359 kts 54°
2026-05-06 15:27 44.13194 -78.43663 23597 ft 366 kts 54°
2026-05-06 15:28 44.14558 -78.40638 24333 ft 372 kts 54°
2026-05-06 15:28 44.15930 -78.37591 25263 ft 369 kts 54°
2026-05-06 15:28 44.17302 -78.34542 26084 ft 371 kts 55°
2026-05-06 15:28 44.18661 -78.31517 26876 ft 372 kts 55°
2026-05-06 15:29 44.20045 -78.28437 27663 ft 374 kts 56°
2026-05-06 15:29 44.21431 -78.25345 28435 ft 375 kts 56°
2026-05-06 15:29 44.22815 -78.22254 29186 ft 376 kts 56°
2026-05-06 15:29 44.24187 -78.19189 29906 ft 377 kts 56°
2026-05-06 15:30 44.25587 -78.16058 30516 ft 378 kts 57°
2026-05-06 15:30 44.26991 -78.12914 30880 ft 389 kts 57°
2026-05-06 15:30 44.28451 -78.09644 30896 ft 410 kts 57°
2026-05-06 15:30 44.29994 -78.06180 30907 ft 432 kts 57°
2026-05-06 15:31 44.31623 -78.02517 30910 ft 452 kts 57°
2026-05-06 15:31 44.33301 -77.98741 30917 ft 471 kts 57°
2026-05-06 15:31 44.35070 -77.94757 30915 ft 489 kts 57°
2026-05-06 15:32 44.38771 -77.86397 30909 ft 520 kts 58°
2026-05-06 15:32 44.40698 -77.82036 30911 ft 533 kts 58°
2026-05-06 15:32 44.44498 -77.72953 30904 ft 547 kts 63°
2026-05-06 15:33 44.47979 -77.63586 30906 ft 543 kts 61°
2026-05-06 15:33 44.51714 -77.54354 30896 ft 542 kts 62°
2026-05-06 15:34 44.55237 -77.45054 30877 ft 539 kts 62°
2026-05-06 15:34 44.57026 -77.40498 30226 ft 536 kts 61°
2026-05-06 15:34 44.58838 -77.35912 29466 ft 533 kts 62°
2026-05-06 15:35 44.60600 -77.31330 28663 ft 530 kts 62°
2026-05-06 15:35 44.62322 -77.26802 27902 ft 527 kts 62°
2026-05-06 15:35 44.64068 -77.22273 27160 ft 525 kts 61°
2026-05-06 15:35 44.65799 -77.17817 26448 ft 523 kts 61°
2026-05-06 15:36 44.67526 -77.13324 25750 ft 521 kts 61°
2026-05-06 15:36 44.69231 -77.08850 25083 ft 517 kts 61°
2026-05-06 15:36 44.70934 -77.04395 24419 ft 513 kts 60°
2026-05-06 15:36 44.72601 -77.00051 23792 ft 509 kts 60°
2026-05-06 15:37 44.74275 -76.95670 23116 ft 505 kts 61°
2026-05-06 15:37 44.75932 -76.91311 22387 ft 500 kts 61°
2026-05-06 15:37 44.77569 -76.87002 21693 ft 496 kts 61°
2026-05-06 15:37 44.79168 -76.82797 21020 ft 491 kts 62°
2026-05-06 15:38 44.80774 -76.78565 20366 ft 489 kts 62°
2026-05-06 15:38 44.82381 -76.74319 19721 ft 489 kts 62°
2026-05-06 15:38 44.83985 -76.70075 19093 ft 489 kts 62°
2026-05-06 15:38 44.85565 -76.65889 18486 ft 487 kts 62°
2026-05-06 15:39 44.87154 -76.61675 17836 ft 486 kts 63°
2026-05-06 15:39 44.88740 -76.57459 17144 ft 483 kts 63°
2026-05-06 15:39 44.90315 -76.53268 16479 ft 481 kts 62°
2026-05-06 15:39 44.91863 -76.49145 15831 ft 479 kts 62°
2026-05-06 15:40 44.93423 -76.44978 15187 ft 477 kts 62°
2026-05-06 15:40 44.94964 -76.40857 14579 ft 474 kts 62°
2026-05-06 15:40 44.96500 -76.36745 13974 ft 466 kts 62°
2026-05-06 15:40 44.97996 -76.32738 13356 ft 452 kts 62°
2026-05-06 15:41 44.99424 -76.28900 12727 ft 442 kts 62°
2026-05-06 15:41 45.00846 -76.25075 12127 ft 432 kts 62°
2026-05-06 15:41 45.02231 -76.21348 11542 ft 420 kts 62°
2026-05-06 15:41 45.03561 -76.17761 10995 ft 410 kts 62°
2026-05-06 15:42 45.04876 -76.14212 10462 ft 402 kts 62°
2026-05-06 15:42 45.06158 -76.10745 9952 ft 391 kts 63°
2026-05-06 15:42 45.07388 -76.07416 9429 ft 379 kts 62°
2026-05-06 15:42 45.08575 -76.04200 8901 ft 369 kts 62°
2026-05-06 15:43 45.09749 -76.01012 8389 ft 359 kts 62°
2026-05-06 15:43 45.10876 -75.97952 7902 ft 348 kts 62°
2026-05-06 15:43 45.11975 -75.94960 7437 ft 336 kts 61°
2026-05-06 15:43 45.13036 -75.92074 6994 ft 325 kts 61°
2026-05-06 15:44 45.14066 -75.89266 6573 ft 316 kts 60°
2026-05-06 15:44 45.15065 -75.86542 6148 ft 307 kts 60°
2026-05-06 15:44 45.16020 -75.83936 5726 ft 294 kts 60°
2026-05-06 15:44 45.16939 -75.81422 5320 ft 279 kts 60°
2026-05-06 15:45 45.17817 -75.79023 4942 ft 266 kts 61°
2026-05-06 15:45 45.18653 -75.76737 4574 ft 254 kts 61°
2026-05-06 15:45 45.19443 -75.74570 4223 ft 245 kts 61°
2026-05-06 15:45 45.20216 -75.72451 3881 ft 236 kts 61°
2026-05-06 15:46 45.20961 -75.70405 3563 ft 229 kts 61°
2026-05-06 15:46 45.21676 -75.68442 3254 ft 223 kts 61°
2026-05-06 15:46 45.22383 -75.66503 2947 ft 218 kts 62°
2026-05-06 15:46 45.23075 -75.64600 2666 ft 213 kts 62°
2026-05-06 15:47 45.23742 -75.62764 2408 ft 208 kts 62°
2026-05-06 15:47 45.24454 -75.61006 2150 ft 203 kts 51°
2026-05-06 15:47 45.25541 -75.59836 1885 ft 197 kts 21°
2026-05-06 15:47 45.26870 -75.59578 1629 ft 191 kts 352°
2026-05-06 15:48 45.28100 -75.60177 1371 ft 183 kts 326°
2026-05-06 15:48 45.28981 -75.61398 1115 ft 166 kts 303°
2026-05-06 15:48 45.29602 -75.62635 884 ft 147 kts 304°
2026-05-06 15:48 45.30205 -75.63800 651 ft 148 kts 303°
2026-05-06 15:49 45.30813 -75.64989 493 ft 152 kts 306°
2026-05-06 15:49 45.31409 -75.66128 370 ft 120 kts 305°
2026-05-06 15:49 45.31729 -75.66726 368 ft 28 kts 309°
2026-05-06 15:49 45.31742 -75.66808 369 ft 13 kts 93°
2026-05-06 15:50 45.31766 -75.66672 369 ft 15 kts 52°
2026-05-06 15:50 45.31818 -75.66537 371 ft 17 kts 70°
2026-05-06 15:50 45.31889 -75.66388 371 ft 20 kts 59°
2026-05-06 15:50 45.31969 -75.66220 371 ft 22 kts 54°
2026-05-06 15:51 45.32056 -75.66020 370 ft 25 kts 57°
2026-05-06 15:51 45.32151 -75.65824 369 ft 7 kts 49°
2026-05-06 15:51 45.32189 -75.65824 371 ft 9 kts 341°
2026-05-06 15:51 45.32261 -75.65775 376 ft 9 kts 58°
2026-05-06 15:52 45.32263 -75.65769 376 ft 0 kts 60°